[[{"header":{"parameterUnit":"m.s-1","parameterCategory":1,"la1":30.2991,"la2":30.254,"lo1":-89.0895,"lo2":-89.0444,"dy":0.0017,"dx":0.0017,"nx":28,"ny":28,"refTime":"2024-08-05T09:00:00:Z","depth":0,"parameterNumber":2,"parameterNumberName":"U-component_of_WINDS"},"data":[0,0,0,0,0,0,0,0,0,0,0,0,0,0,0,0,0,0,0,0,0,0,0,0,0,0,0,0,0,0,0,0,0,0,0,0,0,0,0,0,0,0,0,0,0,0,0,0,0,0,0,0,0,0,0,0,0,0,0.875,0.8751,0,0.8763,0.8763,0.8763,0.8775,0.8775,0.8775,0.8775,0.8788,0.8788,0.8788,0,0,0,0,0,0,0,0,0,0,0,0,0,0.8737,0.8737,0.875,0.8751,0.8751,0.8763,0.8763,0.8763,0.8775,0.8775,0.8775,0.8776,0.8788,0.8788,0.8789,0,0,0,0,0,0,0,0,0,0,0,0,0,0.8745,0.8737,0.875,0.8758,0.8759,0.8763,0.8763,0.8763,0.8775,0.8775,0.8775,0.8776,0.8788,0.8788,0.8789,0.8786,0,0,0.8789,0.879,0,0,0,0,0,0,0,0,0.8745,0.8746,0.8757,0.8757,0.8758,0.8768,0.8763,0.8771,0.8775,0.8769,0.8775,0.8776,0.8781,0.8782,0.8784,0.8787,0.8787,0.8789,0.879,0.879,0.879,0,0,0,0,0,0,0,0.8744,0.8745,0.8755,0.8757,0.8758,0.8761,0.8763,0.8765,0.8774,0.8769,0.877,0.8772,0.8782,0.8784,0.8784,0.8787,0.8789,0.879,0.879,0.879,0.8791,0.8791,0,0,0,0,0,0,0.8743,0.8745,0.8755,0.8756,0.8752,0.8761,0.8763,0.8765,0.8774,0.8775,0.8771,0.8772,0.8783,0.8784,0.8785,0.8783,0.879,0.879,0.879,0.8791,0.8791,0.8791,0,0,0,0,0,0,0.8742,0.8743,0.8754,0.8751,0.8752,0.8761,0.8763,0.8765,0.8767,0.8775,0.8777,0.8772,0.8783,0.8784,0.8786,0.8784,0.879,0.8791,0.8791,0.8791,0.8791,0.878,0,0,0,0,0,0,0.8742,0.8743,0.8742,0.8751,0.8752,0.8755,0.8763,0.8765,0.8767,0.8768,0.8776,0.8777,0.8783,0.8786,0.8786,0.8785,0.8791,0.8791,0.8791,0.8791,0.8781,0.878,0.8779,0,0,0,0,0,0.8741,0.8738,0.8742,0.8743,0.8751,0.8755,0.8756,0.8763,0.8767,0.8766,0.8772,0.8777,0.8784,0.8786,0.8787,0.8785,0.8791,0.8791,0.8791,0.8781,0.878,0.8779,0,0,0,0,0,0,0.8728,0.8739,0.8744,0.8743,0.8748,0.8757,0.8756,0.8761,0.8765,0.8766,0.8775,0.8777,0.8778,0.8781,0.8783,0.8784,0.8789,0.8789,0.8781,0.878,0.8779,0.8778,0.8791,0,0,0,0,0,0.8726,0.8728,0.8737,0.8736,0.8738,0.8747,0.8749,0.8754,0.876,0.8762,0.8768,0.8773,0.8776,0.8778,0.8782,0.8782,0.8784,0.8781,0.878,0.8779,0.8779,0.878,0.8779,0.8789,0.8789,0.8789,0,0,0.872,0.8726,0.8727,0.8734,0.8738,0.8741,0.8748,0.875,0.8752,0.8762,0.8764,0.8769,0.8775,0.8776,0.8777,0.878,0.8777,0.8779,0.8778,0.8778,0.878,0.8779,0.8778,0.8789,0.8789,0.8789,0,0,0.871,0.8715,0.8715,0.8719,0.8727,0.8733,0.8733,0.8741,0.8745,0.8747,0.8755,0.8758,0.8763,0.8768,0.8771,0.8766,0.8771,0.8767,0.8761,0.8762,0.8762,0.8761,0.8759,0.8759,0.8767,0.8767,0.8766,0,0.8701,0.8705,0.8714,0.8716,0.8719,0.8729,0.8729,0.8733,0.8741,0.8743,0.8746,0.8755,0.876,0.8763,0.8762,0.8764,0.8764,0.8766,0.8761,0.876,0.876,0.8759,0.8758,0.8766,0.8766,0.8766,0.8766,0,0.8695,0.8698,0.8697,0.8705,0.8708,0.8709,0.8718,0.8721,0.8726,0.8732,0.8736,0.8742,0.8748,0.8749,0.8754,0.8753,0.8755,0.8759,0.8764,0.8758,0.8757,0.8757,0.8765,0.8765,0.8766,0.8766,0,0,0.8676,0.869,0.869,0.8694,0.8704,0.8706,0.8708,0.8714,0.8717,0.8722,0.8725,0.873,0.8735,0.8739,0.8745,0.8746,0.8742,0.875,0.8751,0.8749,0.8742,0.8739,0.8738,0.8746,0.8746,0.8746,0.8742,0,0.8668,0.8672,0.8681,0.8682,0.8686,0.8696,0.8698,0.8704,0.871,0.8714,0.8721,0.8725,0.8731,0.8733,0.8735,0.8742,0.8741,0.8742,0.8749,0.8749,0.8746,0.8738,0.8734,0.8729,0.8742,0.8742,0.8742,0,0.8659,0.8665,0.8667,0.8677,0.8679,0.8681,0.8688,0.8691,0.8699,0.8704,0.8709,0.8716,0.872,0.8725,0.873,0.8731,0.8735,0.8739,0.8739,0.8739,0.8744,0.8738,0.8728,0.8728,0.8741,0.8741,0.8741,0,0.8645,0.8654,0.8656,0.866,0.8672,0.8673,0.8679,0.8687,0.8691,0.8697,0.87,0.8706,0.871,0.8716,0.8725,0.8727,0.873,0.8735,0.8734,0.8734,0.8733,0.8733,0.8724,0.8736,0.8736,0.8736,0.8736,0,0.8635,0.8636,0.8651,0.8652,0.8654,0.8665,0.8666,0.8673,0.868,0.8684,0.8693,0.8696,0.8708,0.8713,0.872,0.8724,0.8726,0.873,0.8732,0.8729,0.8728,0.8731,0.8731,0.8735,0.8735,0.8735,0.8735,0,0.862,0.863,0.8633,0.8645,0.8649,0.8649,0.866,0.8662,0.867,0.8674,0.8676,0.8687,0.8694,0.8704,0.8713,0.8718,0.8721,0.8724,0.8718,0.8719,0.8718,0.8718,0.8709,0.8709,0.8721,0.8721,0.8721,0,0.8613,0.8614,0.8626,0.863,0.8635,0.864,0.8644,0.8655,0.8659,0.8669,0.8671,0.8678,0.8684,0.8694,0.8704,0.8711,0.8714,0.8711,0.8715,0.8713,0.8715,0.8715,0.8715,0.871,0.871,0.871,0.8709,0,0.8599,0.8604,0.861,0.8618,0.8622,0.8629,0.8636,0.8638,0.8651,0.8655,0.8662,0.8667,0.8677,0.8685,0.8694,0.87,0.8707,0.8708,0.8708,0.8705,0.8702,0.8704,0.8715,0.8708,0.8708,0.8708,0.8708,0.8708,0.8588,0.859,0.8599,0.8606,0.8613,0.8619,0.8623,0.8631,0.8637,0.8646,0.8652,0.8659,0.8669,0.8682,0.8688,0.8694,0.8697,0.8697,0.8697,0.8697,0.8696,0.8702,0.8696,0.8696,0.8696,0.8696,0.8696,0,0.8575,0.8582,0.8588,0.8598,0.8603,0.861,0.8619,0.8623,0.8629,0.8637,0.8644,0.8653,0.866,0.8671,0.868,0.8683,0.8686,0.8685,0.8684,0.8686,0.8693,0.8692,0.8682,0.8682,0.8682,0.8682,0.8682,0.8682,0.8569,0.8573,0.8579,0.8588,0.8595,0.8602,0.8606,0.8613,0.862,0.8629,0.8636,0.8643,0.8653,0.8663,0.8671,0.8674,0.8677,0.8674,0.8678,0.8684,0.8685,0.8686,0.8686,0.8675,0.8675,0.8671,0.8671,0.8671]},{"header":{"parameterUnit":"m.s-1","parameterCategory":1,"la1":30.2991,"la2":30.254,"lo1":-89.0895,"lo2":-89.0444,"dy":0.0017,"dx":0.0017,"nx":28,"ny":28,"refTime":"2024-08-05T09:00:00:Z","depth":0,"parameterNumber":3,"parameterNumberName":"V-component_of_WINDS"},"data":[0,0,0,0,0,0,0,0,0,0,0,0,0,0,0,0,0,0,0,0,0,0,0,0,0,0,0,0,0,0,0,0,0,0,0,0,0,0,0,0,0,0,0,0,0,0,0,0,0,0,0,0,0,0,0,0,0,0,-3.5278,-3.5279,0,-3.54,-3.5401,-3.5403,-3.5392,-3.539,-3.5388,-3.5386,-3.5508,-3.5513,-3.5518,0,0,0,0,0,0,0,0,0,0,0,0,0,-3.5032,-3.5037,-3.5278,-3.5279,-3.5281,-3.54,-3.5401,-3.5403,-3.5392,-3.539,-3.5388,-3.5385,-3.5506,-3.5512,-3.5518,0,0,0,0,0,0,0,0,0,0,0,0,0,-3.5145,-3.5038,-3.5277,-3.529,-3.5292,-3.5399,-3.5401,-3.5403,-3.5393,-3.539,-3.5387,-3.5384,-3.5505,-3.5512,-3.5519,-3.5621,0,0,-3.5542,-3.5545,0,0,0,0,0,0,0,0,-3.5139,-3.5154,-3.5286,-3.5289,-3.5292,-3.5378,-3.5359,-3.5476,-3.5393,-3.5354,-3.5386,-3.5383,-3.5467,-3.5477,-3.5506,-3.5627,-3.5632,-3.5543,-3.5547,-3.555,-3.5553,0,0,0,0,0,0,0,-3.5131,-3.5149,-3.5326,-3.5288,-3.5292,-3.5288,-3.5301,-3.5382,-3.5425,-3.5357,-3.5357,-3.5372,-3.5468,-3.5499,-3.5509,-3.5634,-3.5542,-3.5549,-3.5554,-3.5557,-3.5844,-3.5847,0,0,0,0,0,0,-3.5121,-3.5142,-3.5322,-3.533,-3.5207,-3.5295,-3.5309,-3.5353,-3.5424,-3.5432,-3.5374,-3.5371,-3.5488,-3.55,-3.5513,-3.5637,-3.555,-3.5557,-3.5562,-3.5841,-3.5845,-3.5848,0,0,0,0,0,0,-3.5115,-3.5137,-3.5317,-3.5236,-3.5259,-3.5302,-3.5351,-3.5357,-3.5388,-3.5436,-3.5444,-3.5398,-3.5486,-3.5503,-3.5595,-3.5641,-3.5561,-3.5568,-3.5837,-3.5842,-3.5847,-3.5886,0,0,0,0,0,0,-3.5108,-3.5135,-3.5175,-3.5237,-3.5263,-3.5398,-3.5354,-3.5361,-3.5401,-3.5398,-3.5461,-3.5469,-3.5485,-3.5584,-3.5602,-3.565,-3.5573,-3.5833,-3.5839,-3.5845,-3.5881,-3.5892,-3.5901,0,0,0,0,0,-3.51,-3.518,-3.5177,-3.5199,-3.5314,-3.54,-3.5415,-3.5433,-3.5405,-3.5445,-3.5476,-3.5467,-3.5633,-3.5593,-3.5614,-3.5665,-3.583,-3.5838,-3.5845,-3.5876,-3.589,-3.5901,0,0,0,0,0,0,-3.5122,-3.5189,-3.5186,-3.5289,-3.5339,-3.5398,-3.5449,-3.5447,-3.5505,-3.55,-3.5518,-3.5533,-3.5625,-3.5654,-3.5608,-3.5767,-3.5728,-3.5739,-3.5745,-3.5758,-3.5768,-3.5759,-3.558,0,0,0,0,0,-3.5139,-3.5204,-3.5259,-3.5345,-3.537,-3.5406,-3.5444,-3.5454,-3.5506,-3.5527,-3.5564,-3.5614,-3.5678,-3.5719,-3.5781,-3.5885,-3.5898,-3.593,-3.594,-3.5948,-3.5958,-3.6015,-3.603,-3.5872,-3.5871,-3.5871,0,0,-3.5174,-3.5219,-3.5259,-3.5351,-3.5391,-3.5457,-3.5424,-3.5495,-3.5545,-3.5537,-3.5627,-3.5656,-3.5713,-3.5812,-3.5857,-3.5839,-3.6005,-3.5957,-3.5963,-3.5969,-3.6024,-3.6039,-3.6052,-3.5876,-3.5876,-3.5875,0,0,-3.5274,-3.5314,-3.539,-3.5431,-3.5493,-3.5516,-3.5534,-3.5594,-3.5613,-3.5703,-3.5699,-3.5758,-3.5867,-3.5908,-3.5943,-3.6058,-3.6051,-3.6077,-3.6129,-3.6184,-3.6197,-3.6208,-3.6249,-3.6263,-3.6086,-3.6086,-3.6087,0,-3.531,-3.5411,-3.543,-3.5503,-3.5543,-3.554,-3.5617,-3.5655,-3.5733,-3.576,-3.5739,-3.5876,-3.5914,-3.6022,-3.605,-3.6079,-3.61,-3.607,-3.6194,-3.6205,-3.6216,-3.6255,-3.627,-3.6089,-3.6089,-3.6089,-3.6088,0,-3.5453,-3.5523,-3.5577,-3.5653,-3.5699,-3.5773,-3.5802,-3.5847,-3.5852,-3.5877,-3.5969,-3.6015,-3.6085,-3.6111,-3.6117,-3.6221,-3.6207,-3.619,-3.6151,-3.6233,-3.627,-3.6285,-3.6093,-3.6092,-3.6091,-3.6091,0,0,-3.5569,-3.5655,-3.5674,-3.5709,-3.5776,-3.583,-3.5904,-3.5974,-3.6012,-3.6065,-3.6127,-3.622,-3.6204,-3.6244,-3.6254,-3.6303,-3.6391,-3.6279,-3.6281,-3.6298,-3.6507,-3.652,-3.6537,-3.6387,-3.639,-3.6392,-3.6502,0,-3.5675,-3.5807,-3.5826,-3.5942,-3.6007,-3.6005,-3.6069,-3.6117,-3.6142,-3.62,-3.6227,-3.6293,-3.6267,-3.6291,-3.6339,-3.637,-3.6433,-3.6362,-3.6444,-3.6446,-3.643,-3.6556,-3.657,-3.6672,-3.6517,-3.6519,-3.6521,0,-3.5816,-3.5875,-3.5998,-3.6056,-3.6084,-3.6142,-3.6207,-3.6263,-3.6316,-3.6331,-3.6376,-3.638,-3.6456,-3.6414,-3.6518,-3.6469,-3.6504,-3.6524,-3.6528,-3.6536,-3.6489,-3.6567,-3.6704,-3.672,-3.6544,-3.6542,-3.654,0,-3.5888,-3.5998,-3.6086,-3.6115,-3.6186,-3.6226,-3.6257,-3.6309,-3.6349,-3.6406,-3.6433,-3.6497,-3.6533,-3.6582,-3.6603,-3.6571,-3.6706,-3.6666,-3.672,-3.6719,-3.6748,-3.6746,-3.6893,-3.6771,-3.677,-3.677,-3.677,0,-3.6005,-3.608,-3.6119,-3.6173,-3.6257,-3.6278,-3.636,-3.639,-3.6435,-3.6494,-3.6496,-3.6551,-3.6576,-3.6635,-3.6652,-3.6735,-3.6751,-3.6765,-3.6768,-3.6765,-3.6763,-3.6787,-3.6781,-3.6774,-3.6773,-3.6773,-3.6772,0,-3.61,-3.6129,-3.6225,-3.6284,-3.6301,-3.636,-3.641,-3.6462,-3.6487,-3.6561,-3.658,-3.6618,-3.6688,-3.6714,-3.6798,-3.6809,-3.6906,-3.6904,-3.6888,-3.6889,-3.6941,-3.6936,-3.7109,-3.7132,-3.6995,-3.6996,-3.6997,0,-3.6172,-3.623,-3.6296,-3.6336,-3.6369,-3.6433,-3.6475,-3.6497,-3.6541,-3.6606,-3.665,-3.6719,-3.6776,-3.6886,-3.6921,-3.6986,-3.6985,-3.7041,-3.6994,-3.6989,-3.6986,-3.6982,-3.6988,-3.7049,-3.7051,-3.7052,-3.7053,0,-3.6297,-3.6309,-3.637,-3.6436,-3.6486,-3.6539,-3.659,-3.6623,-3.6653,-3.6701,-3.6772,-3.6816,-3.6903,-3.6971,-3.7037,-3.7068,-3.7066,-3.7067,-3.7083,-3.708,-3.7068,-3.7075,-3.6911,-3.7063,-3.7062,-3.7061,-3.7061,-3.706,-3.6383,-3.6434,-3.6489,-3.6556,-3.6598,-3.6646,-3.6697,-3.6729,-3.6789,-3.6862,-3.6871,-3.6947,-3.6999,-3.7088,-3.7122,-3.7181,-3.7166,-3.7189,-3.7195,-3.72,-3.7204,-3.7059,-3.7193,-3.7193,-3.7193,-3.7192,-3.7192,0,-3.6508,-3.6543,-3.6605,-3.6677,-3.673,-3.6724,-3.6781,-3.6825,-3.6893,-3.6942,-3.6998,-3.708,-3.7146,-3.7186,-3.7253,-3.7293,-3.7293,-3.7309,-3.7306,-3.7314,-3.7214,-3.7193,-3.7308,-3.7308,-3.7308,-3.7308,-3.7308,-3.7308,-3.6579,-3.6666,-3.6684,-3.6791,-3.6825,-3.6901,-3.6934,-3.6978,-3.7017,-3.7109,-3.7164,-3.719,-3.7236,-3.7306,-3.7366,-3.7376,-3.74,-3.7418,-3.7427,-3.7333,-3.7321,-3.7309,-3.729,-3.7423,-3.7423,-3.7522,-3.7522,-3.7523]}]]